Wind_Speed
13 14 14 13 14 14 14 14 14 14 15 17 18 17 17 17 17 16 16 16 16 17 18 19 21 22 23 25 26 28 30 31 33 34 35 36 37 40 42 43 43 44 43 42
14 14 14 13 14 15 15 15 16 16 16 17 17 17 17 17 17 17 17 17 17 18 19 21 22 23 24 26 28 30 31 32 34 35 36 37 40 42 44 44 45 45 43 42
13 14 15 13 14 15 15 15 15 15 16 17 17 18 18 18 17 17 17 18 18 19 21 22 23 25 26 28 29 31 32 33 35 36 38 40 42 44 45 46 46 45 43 42
14 15 15 13 16 15 14 14 15 15 16 17 18 19 19 18 18 18 18 19 20 21 22 24 25 26 28 29 30 32 33 34 36 38 40 42 44 46 47 47 46 45 43 42
16 15 15 15 17 16 14 14 16 17 17 18 19 20 20 19 19 19 19 20 21 22 24 25 27 28 29 30 31 32 33 35 36 39 41 44 46 48 48 47 46 45 43 41
18 17 15 16 20 18 16 15 19 19 20 21 21 20 21 21 20 21 21 22 23 24 26 27 28 29 31 32 32 33 35 36 39 41 43 46 48 49 49 48 46 44 41 39
20 19 17 21 21 19 17 19 21 22 22 22 22 21 22 22 22 23 24 25 26 27 28 29 30 31 32 33 34 35 37 39 41 44 46 47 49 50 50 48 45 43 40 38
22 20 20 24 22 22 23 22 23 23 23 24 23 24 24 24 25 25 26 27 28 29 30 31 32 33 34 34 35 36 39 41 44 47 48 50 51 51 50 47 44 41 38 37
25 24 26 25 24 24 23 23 23 24 24 25 25 25 26 27 28 28 29 30 31 32 33 33 34 36 36 36 37 39 41 44 47 49 50 51 52 51 49 46 43 39 37 36
27 27 27 26 26 26 25 25 25 26 26 27 27 28 28 29 30 31 32 33 34 35 35 36 37 37 39 40 41 42 44 46 48 50 51 52 52 50 48 45 42 38 36 35
28 29 28 28 28 28 28 28 28 28 29 29 30 30 30 31 32 33 34 35 36 37 38 39 40 40 41 43 44 44 46 49 50 51 52 53 51 49 46 44 41 38 36 34
30 30 30 30 30 30 30 30 30 30 31 32 32 32 32 33 34 35 36 37 38 40 42 43 43 44 44 45 46 47 49 51 51 52 53 52 50 47 44 42 40 37 34 33
29 31 31 31 31 31 31 32 32 32 32 33 33 34 34 35 36 37 38 39 41 42 44 45 47 47 48 48 49 51 51 52 52 53 52 51 49 46 43 41 38 36 34 32
30 31 31 32 32 32 32 32 33 33 34 35 35 36 36 37 38 40 41 42 44 45 46 47 48 51 52 51 52 53 53 53 53 52 51 49 46 44 41 39 37 35 34 32
30 31 32 33 33 34 34 35 35 36 37 37 38 39 40 41 42 43 44 46 48 48 49 51 53 53 54 54 55 55 55 54 52 50 48 46 44 41 39 37 35 33 32 31
32 33 34 34 35 36 36 37 38 38 39 40 41 42 43 45 46 47 48 49 50 51 53 55 55 55 55 56 56 56 55 53 51 49 47 44 41 39 37 35 33 32 31 30
34 35 36 37 37 38 39 40 40 41 42 43 44 46 47 48 49 50 51 52 53 54 56 56 56 56 57 56 56 55 54 52 50 47 44 42 40 37 36 34 32 31 30 29
36 37 38 39 39 40 41 42 43 44 46 47 48 49 50 51 52 53 54 55 56 56 57 58 58 58 57 56 55 54 52 50 47 45 42 40 38 36 34 33 31 30 29 28
38 39 40 41 42 43 44 45 46 47 48 49 50 52 53 54 55 55 56 57 58 58 58 58 58 57 57 56 54 52 50 48 45 43 40 38 36 34 33 31 30 28 26 26
41 42 43 44 45 45 46 47 48 50 51 52 53 54 55 56 57 58 58 59 59 59 59 59 58 57 56 55 53 50 48 45 43 41 39 36 34 33 31 29 27 26 24 23
42 43 44 45 46 47 48 50 51 52 53 54 55 56 57 58 59 59 59 60 60 60 60 59 58 57 56 53 51 48 46 43 41 39 36 34 32 30 28 26 25 24 22 21
44 46 47 48 49 49 50 51 53 54 55 56 57 58 59 59 60 60 60 61 61 60 60 59 58 56 54 52 49 46 43 41 38 36 33 31 29 27 25 24 23 22 20 19
47 48 48 49 50 51 52 53 54 55 56 57 58 58 59 60 60 60 60 60 60 59 58 57 55 54 52 49 46 43 40 37 35 32 30 28 26 25 23 22 20 20 19 18
48 49 50 51 52 53 53 54 55 56 56 57 58 59 59 59 59 59 58 58 57 56 55 53 51 49 47 44 41 38 36 33 30 28 26 25 23 21 20 19 18 18 17 16
50 50 51 52 53 54 54 55 55 55 56 56 56 56 56 56 55 54 53 53 52 51 49 46 43 41 39 36 34 32 30 28 26 24 23 21 20 19 18 18 17 16 15 14
50 51 51 52 52 53 53 53 53 53 53 52 51 50 50 49 49 48 48 48 46 44 41 37 34 33 31 29 27 25 24 23 22 21 19 18 18 17 17 16 15 14 13 12
50 50 50 50 50 50 50 49 49 48 47 46 46 45 45 45 44 44 43 42 39 36 32 30 29 27 25 24 22 20 19 19 18 18 17 17 16 16 15 14 13 12 11 11
Wind_Direction
264 267 273 274 273 276 279 278 276 276 276 276 280 288 296 303 305 305 303 302 302 303 305 308 311 315 318 321 324 326 327 328 327 327 326 326 325 324 323 321 319 318 316 313
271 276 278 278 275 276 279 279 276 276 278 277 283 291 297 302 304 304 302 302 303 305 307 310 313 316 319 321 324 326 327 327 327 327 326 326 326 326 324 322 320 318 316 314
268 272 278 284 280 278 279 277 275 275 275 281 288 294 299 303 304 304 303 303 305 306 308 311 314 316 318 320 323 326 326 326 327 326 326 326 327 326 325 324 321 319 317 315
267 268 273 270 272 277 277 277 277 279 283 287 292 297 300 302 303 303 303 304 305 305 307 310 313 315 317 320 322 324 325 325 326 327 327 328 328 328 326 325 322 319 317 315
264 268 270 273 275 276 279 281 280 283 287 290 293 298 299 300 300 301 302 303 304 306 308 310 312 314 316 319 321 322 324 324 326 327 329 329 330 329 328 326 323 320 318 316
264 262 259 261 266 273 278 283 279 283 287 290 293 296 297 298 300 301 302 303 305 306 308 309 311 313 315 317 319 321 323 324 325 328 329 329 330 330 330 327 324 322 320 318
265 265 264 261 265 270 273 270 277 283 286 289 291 294 295 298 300 302 303 304 305 306 307 309 310 312 314 315 318 320 323 323 325 327 328 329 330 331 330 328 326 323 322 320
264 266 263 266 270 270 270 276 281 284 286 289 291 294 296 298 300 302 303 304 305 306 307 308 310 312 314 314 316 319 322 323 326 327 328 329 329 330 330 329 326 324 322 320
261 262 265 269 273 275 277 279 280 283 285 287 290 293 296 298 300 301 302 303 304 305 306 307 310 312 313 313 315 317 320 322 324 325 326 327 328 328 329 328 326 324 322 321
264 266 269 272 275 278 280 281 282 284 285 287 290 293 295 297 298 300 301 302 303 305 306 307 309 310 311 311 314 315 318 320 322 323 324 325 327 327 327 327 325 324 322 322
266 268 271 274 277 280 282 283 284 285 286 288 290 291 293 294 296 297 299 300 302 303 304 305 305 307 309 311 311 312 315 318 319 320 321 323 324 325 325 325 324 323 322 321
267 270 272 274 276 279 280 281 282 284 285 287 289 291 292 293 294 296 297 298 300 300 302 302 303 304 306 308 308 310 313 316 317 318 320 321 322 323 323 323 322 321 322 321
269 271 273 275 276 278 279 280 281 283 284 286 288 290 291 292 293 294 296 297 298 298 299 299 300 302 303 305 307 310 312 313 314 316 317 318 319 320 320 320 320 320 321 321
270 272 274 276 278 278 279 281 283 284 286 287 288 289 290 291 291 293 293 294 295 295 295 298 299 300 302 304 307 309 310 311 311 313 314 315 316 317 317 317 318 318 319 321
271 273 275 277 279 281 282 284 285 287 288 288 289 289 290 290 290 290 291 291 292 293 294 296 297 297 299 301 304 306 307 308 309 310 311 312 313 313 314 315 315 315 317 319
271 272 275 277 279 281 283 285 286 286 287 287 288 288 288 288 289 289 290 290 291 291 292 294 295 297 298 300 302 303 304 305 306 307 307 309 309 309 311 312 312 313 314 317
274 275 277 278 280 281 282 283 284 284 285 285 285 286 286 287 288 289 290 290 291 292 293 294 295 297 298 299 300 301 302 302 303 303 304 304 305 305 307 309 309 310 311 314
276 277 279 280 281 281 282 282 283 284 284 285 285 286 286 287 288 289 290 291 291 292 293 294 295 296 297 298 299 299 299 300 300 300 301 301 300 301 303 305 305 306 308 311
276 278 279 280 281 282 282 283 284 284 285 286 286 287 288 289 290 290 291 291 292 292 293 294 295 296 296 296 297 297 297 297 296 296 296 296 296 296 298 300 301 302 305 308
278 279 280 280 281 282 283 284 285 286 287 288 288 289 290 291 292 292 292 293 293 294 294 294 294 295 295 295 295 294 294 293 292 292 292 292 291 291 292 294 296 299 301 304
279 280 281 282 283 284 285 286 287 288 289 290 291 292 292 293 293 294 294 294 294 294 294 294 294 294 293 293 292 292 291 289 288 288 288 287 287 288 287 289 292 295 297 300
281 282 284 285 286 287 288 289 290 291 292 293 294 294 295 295 295 295 295 295 295 295 294 293 293 292 291 290 289 288 286 285 284 283 283 282 282 282 282 285 289 291 292 296
284 286 287 288 289 290 291 292 293 294 294 295 295 296 296 296 297 297 296 296 295 295 294 293 291 290 289 287 285 283 281 280 280 278 277 277 276 276 277 281 284 285 285 291
287 288 289 290 291 292 293 294 295 295 296 297 297 298 298 298 298 298 298 297 296 295 294 293 291 289 287 284 281 279 277 275 273 271 270 270 270 271 273 277 280 281 280 285
288 289 291 292 293 294 295 296 297 297 298 299 299 300 300 300 300 300 299 299 298 297 295 293 290 288 285 281 277 274 271 267 264 263 262 261 260 262 266 270 274 277 277 281
290 291 292 294 295 295 296 297 298 299 300 301 301 301 302 302 302 302 302 301 300 299 296 292 289 286 282 277 272 267 262 257 253 250 249 252 253 257 260 264 269 272 273 276
291 292 294 295 296 297 298 299 300 301 302 302 303 303 304 304 303 303 303 303 301 299 293 289 288 285 279 272 267 260 252 248 243 239 241 244 249 253 254 258 261 264 269 271
Height
5860 5860 5859 5859 5858 5857 5857 5856 5856 5856 5855 5853 5850 5849 5848 5846 5844 5842 5840 5838 5836 5834 5831 5829 5826 5822 5819 5815 5810 5806 5801 5796 5791 5785 5780 5774 5768 5762 5755 5748 5741 5734 5728 5721
5856 5856 5855 5855 5854 5853 5853 5852 5851 5850 5850 5848 5846 5845 5844 5842 5840 5837 5835 5833 5831 5829 5826 5823 5820 5817 5813 5809 5804 5799 5795 5790 5784 5778 5773 5767 5760 5754 5746 5739 5732 5724 5717 5710
5853 5853 5851 5852 5851 5850 5849 5848 5847 5846 5846 5843 5842 5841 5839 5837 5835 5833 5831 5828 5826 5823 5821 5818 5814 5811 5807 5802 5798 5793 5788 5783 5777 5771 5765 5759 5752 5745 5737 5729 5722 5714 5707 5700
5848 5849 5848 5850 5846 5845 5844 5843 5842 5841 5840 5839 5838 5836 5834 5832 5830 5828 5826 5823 5821 5818 5815 5812 5808 5804 5800 5796 5791 5787 5782 5776 5771 5764 5758 5751 5743 5735 5728 5720 5712 5704 5696 5689
5844 5844 5844 5844 5841 5840 5840 5840 5838 5837 5836 5834 5833 5831 5829 5827 5825 5823 5820 5818 5815 5812 5809 5806 5802 5798 5794 5789 5785 5780 5775 5769 5763 5757 5750 5742 5734 5726 5718 5710 5702 5694 5686 5679
5838 5839 5840 5841 5836 5836 5837 5836 5834 5832 5831 5829 5828 5827 5825 5822 5820 5817 5814 5812 5809 5806 5803 5799 5795 5791 5787 5782 5778 5773 5767 5761 5755 5748 5741 5733 5725 5717 5709 5700 5692 5684 5677 5670
5833 5833 5834 5832 5831 5832 5833 5833 5829 5827 5826 5824 5822 5821 5819 5816 5813 5811 5808 5805 5802 5799 5796 5792 5788 5784 5779 5775 5770 5765 5759 5753 5747 5740 5732 5725 5716 5708 5700 5691 5683 5675 5668 5661
5827 5828 5830 5825 5826 5826 5826 5825 5823 5821 5820 5818 5816 5814 5811 5809 5807 5804 5801 5799 5795 5792 5788 5784 5780 5776 5772 5767 5762 5756 5751 5744 5738 5731 5723 5715 5707 5699 5691 5683 5674 5667 5660 5653
5821 5823 5820 5819 5819 5818 5818 5817 5816 5814 5813 5811 5809 5807 5805 5802 5800 5797 5794 5791 5788 5784 5780 5776 5772 5768 5763 5758 5753 5747 5741 5735 5728 5721 5714 5706 5698 5690 5682 5674 5666 5659 5652 5645
5813 5813 5812 5812 5811 5811 5810 5809 5808 5807 5805 5803 5802 5800 5797 5795 5792 5789 5786 5783 5779 5775 5771 5767 5763 5759 5754 5749 5743 5738 5732 5725 5719 5712 5704 5697 5689 5681 5673 5665 5658 5651 5644 5638
5806 5805 5805 5804 5804 5803 5802 5801 5800 5798 5797 5795 5794 5791 5789 5786 5784 5780 5777 5774 5770 5766 5762 5758 5754 5749 5744 5739 5733 5728 5722 5715 5709 5702 5694 5687 5679 5672 5664 5657 5650 5644 5637 5631
5798 5797 5797 5796 5796 5795 5793 5792 5791 5790 5788 5786 5784 5782 5780 5777 5774 5771 5768 5764 5761 5757 5752 5748 5743 5738 5733 5729 5723 5717 5711 5705 5699 5691 5684 5677 5670 5662 5655 5649 5642 5636 5630 5624
5789 5788 5787 5787 5787 5786 5784 5783 5782 5780 5778 5777 5774 5772 5770 5767 5764 5761 5757 5754 5750 5746 5742 5737 5732 5728 5723 5718 5712 5707 5701 5695 5688 5681 5674 5667 5660 5653 5646 5640 5634 5628 5622 5616
5780 5779 5778 5778 5777 5776 5774 5773 5772 5770 5768 5766 5764 5762 5759 5756 5753 5750 5747 5743 5740 5736 5731 5726 5722 5716 5711 5706 5701 5695 5689 5683 5677 5670 5663 5657 5650 5644 5638 5632 5626 5620 5615 5609
5771 5770 5769 5768 5767 5765 5764 5762 5761 5759 5757 5755 5752 5750 5747 5744 5741 5738 5735 5731 5727 5724 5719 5715 5710 5704 5699 5694 5689 5683 5677 5671 5665 5659 5653 5647 5641 5635 5629 5623 5618 5613 5607 5602
5762 5760 5759 5758 5756 5755 5753 5752 5750 5747 5745 5743 5740 5737 5735 5732 5728 5725 5722 5718 5714 5710 5706 5701 5697 5691 5686 5681 5676 5670 5665 5659 5653 5647 5642 5636 5631 5625 5620 5615 5610 5605 5601 5596
5751 5750 5749 5747 5746 5744 5742 5740 5738 5736 5733 5730 5728 5725 5722 5718 5715 5711 5708 5704 5700 5695 5691 5686 5682 5677 5672 5667 5661 5656 5651 5646 5640 5635 5630 5625 5621 5616 5612 5607 5603 5598 5594 5589
5740 5739 5738 5736 5734 5732 5730 5728 5725 5723 5720 5717 5714 5711 5708 5704 5701 5697 5693 5689 5685 5680 5675 5671 5666 5661 5656 5651 5646 5641 5636 5632 5627 5622 5618 5614 5610 5606 5603 5599 5595 5591 5587 5583
5729 5728 5726 5724 5722 5720 5717 5715 5712 5709 5706 5703 5700 5697 5693 5689 5685 5681 5677 5673 5668 5663 5659 5654 5649 5645 5640 5635 5630 5626 5621 5617 5614 5610 5606 5603 5600 5596 5593 5590 5587 5583 5580 5576
5717 5716 5713 5711 5709 5706 5704 5701 5698 5695 5692 5688 5685 5681 5677 5672 5668 5664 5659 5654 5649 5645 5640 5636 5631 5627 5622 5618 5614 5610 5606 5603 5600 5597 5594 5591 5589 5586 5584 5581 5579 5576 5573 5570
5704 5702 5700 5698 5695 5692 5689 5686 5683 5680 5676 5672 5668 5664 5659 5655 5650 5645 5640 5636 5631 5626 5621 5616 5612 5608 5604 5600 5597 5594 5591 5588 5586 5584 5582 5580 5578 5576 5574 5573 5571 5568 5566 5563
5691 5689 5686 5683 5681 5678 5674 5671 5667 5663 5659 5655 5650 5645 5641 5636 5631 5626 5621 5616 5611 5606 5602 5597 5593 5588 5585 5582 5580 5577 5575 5573 5572 5571 5570 5568 5568 5567 5566 5564 5563 5561 5559 5557
5676 5674 5671 5668 5665 5662 5659 5655 5651 5646 5642 5637 5632 5627 5622 5617 5612 5607 5602 5596 5591 5586 5581 5577 5573 5569 5566 5564 5562 5561 5560 5559 5558 5558 5558 5558 5557 5557 5557 5556 5555 5554 5553 5551
5662 5659 5656 5653 5650 5646 5642 5638 5634 5629 5624 5619 5614 5609 5603 5598 5593 5587 5581 5576 5571 5566 5562 5557 5554 5550 5548 5546 5545 5545 5545 5545 5546 5546 5547 5548 5548 5548 5549 5549 5548 5547 5546 5545
5646 5644 5640 5637 5633 5630 5626 5621 5617 5612 5607 5602 5597 5591 5585 5579 5574 5569 5563 5558 5552 5548 5543 5540 5536 5534 5531 5530 5530 5530 5531 5533 5535 5536 5538 5539 5540 5541 5541 5541 5541 5541 5540 5540
5631 5628 5625 5621 5617 5613 5609 5605 5600 5595 5590 5586 5581 5575 5569 5563 5558 5552 5547 5541 5536 5531 5528 5524 5522 5520 5518 5517 5518 5518 5520 5522 5525 5527 5529 5531 5532 5533 5534 5535 5535 5535 5535 5534
5616 5613 5609 5605 5601 5597 5593 5589 5585 5580 5575 5570 5566 5560 5555 5549 5544 5538 5532 5527 5523 5518 5515 5512 5510 5508 5508 5507 5508 5509 5511 5514 5517 5519 5521 5524 5525 5527 5528 5529 5529 5530 5530 5530